Regional Weather Roundup
Issued by NWS State College, PA

Home | Current Version | Previous Version | Text Only | Print | Product List | Glossary On
Versions: 1 2 3 4 5 6 7 8 9 10 11 12 13 14 15 16 17 18 19 20 21 22 23 24 25 26 27 28 29 30 31 32 33 34 35 36 37 38 39 40 41 42 43 44 45 46 47 48 49 50
000
ASUS41 KCTP 231103
RWRCTP
NATIONAL WEATHER SERVICE STATE COLLEGE PA
700 AM EDT SAT SEP 23 2017

Note: "fair" indicates few or no clouds below 12,000 feet with no
significant weather and/or obstructions to visibility.

* = STATION THAT DOES NOT REPORT PRECIPITATION /E.G. RAIN...SNOW...ETC/
    THUNDER OR FOG.

PAZ002>004-007>009-013>016-020>023-029>032-231200-
WESTERN PENNSYLVANIA

CITY           SKY/WX    TMP DP  RH WIND       PRES   REMARKS
ERIE           CLEAR     62  55  77 S3        30.12R
MEADVILLE      CLEAR     58  57  97 CALM      30.15R
FRANKLIN*      CLEAR     55  54  94 E3        30.16S
NEW CASTLE     FAIR      56  56 100 CALM      30.15R FOG
BEAVER COUNTY  NOT AVBL
BUTLER*        CLEAR     54  53  97 CALM      30.15R
PITTSBURGH INT PTCLDY    59  56  89 NW5       30.13R
PITTSBURGH     CLEAR     60  56  86 CALM      30.11R
INDIANA*       CLEAR     55  54  94 NE3       30.17R
LATROBE        CLEAR     54  54 100 CALM      30.13R
WASHINGTON CO* CLEAR     52  52 100 CALM      30.13R VSB 1
$$

PAZ004>006-010>012-017>019-024>028-033>037-041-042-045-046-049>053-231200-
CENTRAL PENNSYLVANIA

CITY           SKY/WX    TMP DP  RH WIND       PRES   REMARKS
BRADFORD       CLEAR     48  48 100 CALM      30.17R
DUBOIS         CLEAR     58  49  72 E3        30.15R
CLEARFIELD     CLEAR     52  50  93 CALM      30.16R
JOHNSTOWN      CLEAR     59  55  87 SW5       30.16R
ALTOONA        CLEAR     53  52  96 S5        30.14R
STATE COLLEGE  PTCLDY    52  52 100 CALM      30.13R
WILLIAMSPORT   CLEAR     55  53  93 VRB5      30.10R
SELINSGROVE    CLEAR     50  50 100 CALM      30.11R
FT INDIANTOWN  CLEAR     61  55  81 CALM      30.07R
CAPITAL CITY   CLEAR     60  54  80 W3        30.08R
HARRISBURG     MOCLDY    62  58  86 NW5       30.06S
YORK           CLEAR     52  52 100 CALM      30.08R
$$

PAZ038>040-043-044-047-048-054-055-060>062-067>071-231200-
EASTERN PENNSYLVANIA

CITY           SKY/WX    TMP DP  RH WIND       PRES   REMARKS
SCRANTON       PTCLDY    53  52  96 CALM      30.11R
MOUNT POCONO   CLEAR     53  51  93 CALM      30.10R
ALLENTOWN      CLEAR     59  53  80 W3        30.05R
QUAKERTOWN*    SUNNY     57  55  94 CALM      30.06R
READING        CLEAR     59  57  93 CALM      30.05R
LANCASTER      CLEAR     59  56  89 W6        30.07R
COATESVILLE    CLOUDY    66  52  59 N5        30.07S
POTTSTOWN      CLEAR     59  55  87 CALM      30.07R
BLUE BELL      CLEAR     55  54  94 CALM      30.06R
DOYLESTOWN     CLEAR     63  52  67 CALM      30.03R
WILLOW GROVE   NOT AVBL
NORTH PHILA    CLEAR     68  52  56 NW3       30.04R
PHILADELPHIA   MOCLDY    67  52  58 N7        30.03S
$$




USA.gov is the U.S. government's official web portal to all federal, state and local government web resources and services.